Regional Weather Roundup
Issued by NWS

Home | Current Version | Previous Version | Graphics & Text | Print | Product List | Glossary On
Versions: 1 2 3 4 5 6 7 8 9 10 11 12 13 14 15 16 17 18 19 20 21 22 23 24 25 26 27 28 29 30 31 32 33 34 35 36 37 38 39 40 41 42 43 44 45 46 47 48 49 50
000
ASUS43 KFSD 230602
RWRSD

WEATHER ROUNDUP FOR SOUTH DAKOTA
NATIONAL WEATHER SERVICE SIOUX FALLS SD
1200 AM CST THU NOV 23 2017

NOTE: "FAIR" INDICATES FEW OR NO CLOUDS BELOW 12,000 FEET WITH NO
SIGNIFICANT WEATHER AND/OR OBSTRUCTIONS TO VISIBILITY.


SDZ001>005-009-010-012>017-230700-
NORTHWEST AND NORTH CENTRAL SOUTH DAKOTA

CITY           SKY/WX    TMP DP  RH WIND       PRES   REMARKS
BUFFALO          N/A     43  37  79 SW7       29.95F
FAITH            N/A     44  38  79 W5        30.00F
MOBRIDGE       CLOUDY    30  27  88 NE5       29.96F WCI  25
$$

SDZ012>016-024>037-041>051-057-063-072>074-230700-
SOUTHWEST AND SOUTH CENTRAL SOUTH DAKOTA

CITY           SKY/WX    TMP DP  RH WIND       PRES   REMARKS
RAPID CTY ARPT CLEAR     47  36  65 W6        30.07F
PIERRE         CLEAR     38  35  89 NW10      29.99F
CUSTER         CLEAR     46  34  62 NW3       30.16F
ELLSWORTH AFB  CLEAR     40  36  84 W5        30.06F
PHILIP         CLEAR     43  38  82 W10       30.03F
PINE RIDGE     CLEAR     37  32  82 W6        30.11F
SPEARFISH      FAIR      52  37  58 W8        30.09F
WINNER         FAIR      47  38  71 W6        30.03R
$$

SDZ004>011-016>023-039-040-230700-
NORTHEAST SOUTH DAKOTA

CITY           SKY/WX    TMP DP  RH WIND       PRES   REMARKS
ABERDEEN       CLOUDY    26  23  88 NW7       29.99S WCI  18
WATERTOWN      CLEAR     29  24  82 NW8       29.92R WCI  21
BROOKINGS      CLOUDY    26  20  77 CALM      29.93S
SISSETON         N/A     30  23  75 NW10      29.93R WCI  21
$$

SDZ017-020-022-023-036>040-048>070-230700-
SOUTHEAST SOUTH DAKOTA

CITY           SKY/WX    TMP DP  RH WIND       PRES   REMARKS
SIOUX FALLS    CLOUDY    27  20  75 SW3       29.94R
HURON          CLOUDY    30  27  88 NW10      29.98R WCI  21
CHAMBERLAIN    CLEAR     49  39  69 NW9       30.00R
MITCHELL       CLEAR     40  32  73 NW9       29.99R
YANKTON        CLEAR     48  34  58 NW13      29.96R
$$

ABBREVIATIONS USED IN REMARKS
   TC - TEMPERATURE IN CELSIUS
  WCI - WIND CHILL INDEX
   HX - HEAT INDEX
  VSB - VISIBILITY




USA.gov is the U.S. government's official web portal to all federal, state and local government web resources and services.